Hourly Weather Dziady

Today, 16 May, Sunday

Time Temperature Precipitation Wind Pressure Humidity
00:00 +12°C° 0.3 mm 2 mps 732 mmHg 91%
01:00 +12°C° 0 mm 2 mps 732 mmHg 93%
02:00 +10°C° 0 mm 2 mps 731 mmHg 93%
03:00 +10°C° 0 mm 2 mps 731 mmHg 93%
04:00 +10°C° 0 mm 2 mps 731 mmHg 93%
05:00 +12°C° 0.2 mm 2 mps 731 mmHg 92%
06:00 +12°C° 0.2 mm 2 mps 731 mmHg 90%
07:00 +13°C° 0 mm 2 mps 731 mmHg 89%
08:00 +13°C° 0.2 mm 3 mps 731 mmHg 84%
09:00 +14°C° 0.2 mm 3 mps 731 mmHg 79%
10:00 +15°C° 0.2 mm 4 mps 731 mmHg 74%
11:00 +14°C° 0.7 mm 4 mps 731 mmHg 79%
12:00 +13°C° 0.7 mm 4 mps 731 mmHg 83%
13:00 +12°C° 0.7 mm 4 mps 731 mmHg 88%
14:00 +13°C° 0.5 mm 4 mps 731 mmHg 86%
15:00 +13°C° 0.5 mm 3 mps 731 mmHg 84%
16:00 +13°C° 0.5 mm 3 mps 731 mmHg 83%
17:00 +14°C° 0.1 mm 2 mps 731 mmHg 84%
18:00 +13°C° 0.1 mm 2 mps 731 mmHg 86%
19:00 +13°C° 0.1 mm 2 mps 731 mmHg 87%
20:00 +12°C° 0 mm 2 mps 731 mmHg 88%
21:00 +10°C° 0 mm 2 mps 731 mmHg 89%
22:00 +9°C° 0 mm 2 mps 731 mmHg 90%
23:00 +9°C° 0 mm 2 mps 731 mmHg 90%

Tomorrow, 17 May, Monday

Time Temperature Precipitation Wind Pressure Humidity
00:00 +9°C° 0 mm 2 mps 731 mmHg 90%
01:00 +8°C° 0 mm 2 mps 732 mmHg 90%
02:00 +8°C° 0 mm 2 mps 731 mmHg 91%
03:00 +8°C° 0 mm 2 mps 731 mmHg 91%
04:00 +8°C° 0 mm 2 mps 731 mmHg 91%
05:00 +10°C° 0 mm 2 mps 731 mmHg 87%
06:00 +11°C° 0 mm 3 mps 731 mmHg 82%
07:00 +13°C° 0 mm 3 mps 731 mmHg 78%
08:00 +14°C° 0 mm 3 mps 731 mmHg 71%
09:00 +15°C° 0 mm 4 mps 731 mmHg 65%
10:00 +18°C° 0 mm 4 mps 730 mmHg 58%
11:00 +18°C° 0.1 mm 4 mps 730 mmHg 57%
12:00 +19°C° 0.1 mm 3 mps 730 mmHg 57%
13:00 +19°C° 0.1 mm 3 mps 730 mmHg 56%
14:00 +17°C° 0.5 mm 4 mps 730 mmHg 66%
15:00 +15°C° 0.5 mm 4 mps 730 mmHg 76%
16:00 +13°C° 0.5 mm 5 mps 730 mmHg 86%
17:00 +12°C° 0.7 mm 4 mps 730 mmHg 89%
18:00 +11°C° 0.7 mm 4 mps 730 mmHg 92%
19:00 +10°C° 0.7 mm 3 mps 731 mmHg 95%
20:00 +10°C° 0.7 mm 3 mps 731 mmHg 96%
21:00 +10°C° 0.7 mm 3 mps 731 mmHg 96%
22:00 +9°C° 0.7 mm 3 mps 731 mmHg 96%
23:00 +9°C° 0.5 mm 3 mps 731 mmHg 96%

Day after tomorrow, 18 May, Tuesday

Time Temperature Precipitation Wind Pressure Humidity
00:00 +9°C° 0.5 mm 3 mps 731 mmHg 96%
01:00 +9°C° 0.5 mm 3 mps 731 mmHg 97%
02:00 +8°C° 0 mm 4 mps 731 mmHg 96%
03:00 +8°C° 0 mm 4 mps 731 mmHg 96%
04:00 +8°C° 0 mm 4 mps 731 mmHg 96%
05:00 +8°C° 0.1 mm 5 mps 731 mmHg 96%
06:00 +8°C° 0.1 mm 5 mps 732 mmHg 95%
07:00 +8°C° 0.1 mm 6 mps 732 mmHg 95%
08:00 +9°C° 0 mm 6 mps 732 mmHg 91%
09:00 +10°C° 0 mm 6 mps 733 mmHg 88%
10:00 +10°C° 0 mm 6 mps 733 mmHg 85%
11:00 +11°C° 0.2 mm 6 mps 733 mmHg 80%
12:00 +13°C° 0.2 mm 6 mps 733 mmHg 75%
13:00 +14°C° 0.2 mm 6 mps 734 mmHg 70%
14:00 +14°C° 0.1 mm 6 mps 734 mmHg 70%
15:00 +14°C° 0.1 mm 5 mps 734 mmHg 71%
16:00 +14°C° 0.1 mm 5 mps 734 mmHg 71%
17:00 +13°C° 0.1 mm 4 mps 734 mmHg 76%
18:00 +12°C° 0.1 mm 4 mps 734 mmHg 80%
19:00 +11°C° 0.1 mm 3 mps 735 mmHg 85%
20:00 +10°C° 0 mm 3 mps 735 mmHg 88%
21:00 +9°C° 0 mm 3 mps 735 mmHg 91%
22:00 +8°C° 0 mm 3 mps 735 mmHg 94%
23:00 +8°C° 0 mm 3 mps 735 mmHg 94%

19 May, Wednesday

Time Temperature Precipitation Wind Pressure Humidity
00:00 +8°C° 0 mm 3 mps 735 mmHg 95%
01:00 +7°C° 0 mm 3 mps 735 mmHg 95%
02:00 +7°C° 0 mm 3 mps 735 mmHg 96%
03:00 +7°C° 0 mm 3 mps 735 mmHg 96%
04:00 +5°C° 0 mm 3 mps 736 mmHg 97%
05:00 +12°C° 0 mm 5 mps 736 mmHg 77%
06:00 +10°C° 0 mm 5 mps 737 mmHg 81%
07:00 +9°C° 0 mm 5 mps 737 mmHg 85%
08:00 +12°C° 0.3 mm 4 mps 736 mmHg 80%
09:00 +12°C° 0.3 mm 4 mps 736 mmHg 77%
10:00 +13°C° 0.3 mm 5 mps 736 mmHg 73%
11:00 +12°C° 0.1 mm 5 mps 737 mmHg 73%
12:00 +13°C° 0.1 mm 5 mps 737 mmHg 69%
13:00 +13°C° 0.1 mm 5 mps 737 mmHg 65%
14:00 +10°C° 0.4 mm 5 mps 736 mmHg 83%
15:00 +12°C° 0.4 mm 4 mps 736 mmHg 80%
16:00 +13°C° 0.4 mm 4 mps 736 mmHg 77%
17:00 +12°C° 0.1 mm 4 mps 736 mmHg 81%
18:00 +11°C° 0.1 mm 3 mps 736 mmHg 85%
19:00 +10°C° 0.1 mm 3 mps 736 mmHg 88%
20:00 +10°C° 0 mm 3 mps 736 mmHg 90%
21:00 +9°C° 0 mm 3 mps 736 mmHg 92%
22:00 +8°C° 0 mm 3 mps 736 mmHg 94%
23:00 +8°C° 0 mm 3 mps 736 mmHg 95%

20 May, Thursday

Time Temperature Precipitation Wind Pressure Humidity
00:00 +8°C° 0 mm 3 mps 736 mmHg 95%
01:00 +7°C° 0 mm 3 mps 736 mmHg 96%
02:00 +7°C° 0.1 mm 3 mps 736 mmHg 97%
03:00 +7°C° 0.1 mm 3 mps 736 mmHg 97%
04:00 +7°C° 0.1 mm 3 mps 736 mmHg 98%
05:00 +6°C° 0.4 mm 4 mps 736 mmHg 97%
06:00 +7°C° 0.4 mm 4 mps 736 mmHg 96%
07:00 +7°C° 0.4 mm 4 mps 737 mmHg 95%
08:00 +8°C° 0.4 mm 4 mps 737 mmHg 88%
09:00 +10°C° 0.4 mm 4 mps 737 mmHg 81%
10:00 +11°C° 0.4 mm 4 mps 738 mmHg 74%
11:00 +12°C° 0.1 mm 5 mps 738 mmHg 68%
12:00 +13°C° 0.1 mm 5 mps 737 mmHg 62%
13:00 +14°C° 0.1 mm 5 mps 737 mmHg 56%
14:00 +14°C° 0.1 mm 5 mps 737 mmHg 59%
15:00 +13°C° 0.1 mm 5 mps 738 mmHg 62%
16:00 +13°C° 0.1 mm 5 mps 738 mmHg 65%
17:00 +12°C° 0.2 mm 4 mps 738 mmHg 71%
18:00 +11°C° 0.2 mm 4 mps 738 mmHg 77%
19:00 +10°C° 0.2 mm 3 mps 738 mmHg 82%
20:00 +9°C° 0 mm 3 mps 739 mmHg 86%
21:00 +8°C° 0 mm 3 mps 739 mmHg 89%
22:00 +7°C° 0 mm 3 mps 739 mmHg 93%
23:00 +7°C° 0 mm 3 mps 739 mmHg 93%

21 May, Friday

Time Temperature Precipitation Wind Pressure Humidity
00:00 +5°C° 0 mm 3 mps 739 mmHg 94%
01:00 +5°C° 0 mm 3 mps 739 mmHg 94%
02:00 +4°C° 0 mm 3 mps 740 mmHg 95%
03:00 +4°C° 0 mm 3 mps 740 mmHg 96%
04:00 +4°C° 0 mm 3 mps 740 mmHg 96%
05:00 +5°C° 0 mm 4 mps 740 mmHg 91%
06:00 +6°C° 0 mm 4 mps 740 mmHg 85%
07:00 +8°C° 0 mm 5 mps 740 mmHg 79%
08:00 +9°C° 0.1 mm 5 mps 740 mmHg 71%
09:00 +10°C° 0.1 mm 5 mps 740 mmHg 63%
10:00 +11°C° 0.1 mm 6 mps 740 mmHg 54%
11:00 +11°C° 0 mm 6 mps 740 mmHg 51%
12:00 +13°C° 0 mm 6 mps 740 mmHg 48%
13:00 +13°C° 0 mm 5 mps 740 mmHg 45%
14:00 +14°C° 0 mm 5 mps 740 mmHg 45%
15:00 +14°C° 0 mm 5 mps 739 mmHg 45%
16:00 +14°C° 0 mm 4 mps 739 mmHg 45%
17:00 +13°C° 0 mm 3 mps 739 mmHg 53%
18:00 +12°C° 0 mm 2 mps 739 mmHg 61%
19:00 +11°C° 0 mm 1 mps 739 mmHg 69%
20:00 +10°C° 0 mm 2 mps 739 mmHg 69%
21:00 +9°C° 0 mm 2 mps 739 mmHg 70%
22:00 +8°C° 0 mm 2 mps 740 mmHg 71%
23:00 +8°C° 0 mm 2 mps 740 mmHg 72%
Show more

We Need Your Consent

Meteoprog and our Service Providers may store and access personal data such as cookies, device identifiers or other similar technologies on your device and process such data to personalise content and ads, as well as provide social media features and to analyse the traffic.

  • Store and/or access information on your device

    Cookies, device identifiers or other information can be stored or accessed on your device for the purposes indicated above.

  • Personalised ads and content, ad and content measurement, audience insights, and products development

    Ads and content can be personalised based on a profile. More data can be added to better personalise ads and content. Ad and content performance can be measured. Insights about the audience who saw the ads and content can be derived. Such data can be used to develop or improve user’s experience, systems and software.

By clicking ‘I Agree’ you will allow the use of indicated cookies, device identifiers, web beacons or other similar technologies. Your settings can be changed in the browser on your device.

For certain purposes, legitimate interests may be relied on, rather than consent. You can read more about this in our Privacy and Cookie Policy.